Stations météo

réclame
Mon MeteoGroup
Beauvais, France (7055): Température de l'air & dewpoint: 16.10.2017 15:00:00 - 22.10.2017 15:00:00 (CEST)Beauvais, France (7055): Température de l'air 5cm: 16.10.2017 15:00:00 - 22.10.2017 15:00:00 (CEST)Beauvais, France (7055): Température de l'air -20cm & Température de l'air -100cm: 16.10.2017 15:00:00 - 22.10.2017 15:00:00 (CEST)Beauvais, France (7055): Vitesse du vent & gusts: 16.10.2017 15:00:00 - 22.10.2017 15:00:00 (CEST)Beauvais, France (7055): Direction du vent: 16.10.2017 15:00:00 - 22.10.2017 15:00:00 (CEST)Beauvais, France (7055): reduced air pressure: 16.10.2017 15:00:00 - 22.10.2017 15:00:00 (CEST)Beauvais, France (7055): visibility: 16.10.2017 15:00:00 - 22.10.2017 15:00:00 (CEST)Beauvais, France (7055): Ensoleillement: 16.10.2017 15:00:00 - 22.10.2017 15:00:00 (CEST)Beauvais, France (7055): Quantités de précipitations: 16.10.2017 15:00:00 - 22.10.2017 15:00:00 (CEST)
Date & Time tt [°C] td [°C] tt 5cm [°C] tt -20cm [°C] tt -100cm [°C] ff [km/h] ff [knt] fx [km/h] fx [knt] dd ppp [hPa] vv [km] sd [min] rr [mm]
22.10.2017 15:00:00 11,8 8,3 14,6 14,3 14,9 24 13 38 21 W 1017,5 18 13 0,0
22.10.2017 14:00:00 11,7 7,8 13,8 14,3 14,8 24 13 49 26 W 1017,3 15 28 0,2
22.10.2017 13:00:00 11,3 8,7 12,8 14,3 14,9 24 13 42 23 WSW 1017,2 10 15 0,0
22.10.2017 12:00:00 11,1 8,7 12,2 14,4 14,9 22 12 38 20 WSW 1017,0 10 24 0,2
22.10.2017 11:00:00 10,0 8,1 10,7 14,4 14,9 18 10 34 18 WSW 1016,6 20 17 0,2
22.10.2017 10:00:00 9,1 7,5 9,2 14,4 14,9 18 10 31 17 WSW 1016,5 14 0 0,6
22.10.2017 09:00:00 8,9 7,5 8,8 14,4 14,9 15 8 37 20 W 1016,0 7 0 1,6
22.10.2017 08:00:00 9,2 7,3 8,8 14,5 14,9 28 15 44 24 WSW 1015,2 12 0 0,4
22.10.2017 07:00:00 9,5 6,6 8,9 14,5 14,9 29 16 51 28 SW 1014,4 19 0 0,0
22.10.2017 06:00:00 10,3 6,3 9,1 14,5 14,9 31 17 49 27 SW 1013,7 20 0 0,0
22.10.2017 05:00:00 10,1 6,2 8,9 14,5 14,9 27 15 50 27 SW 1013,5 27 0 0,0
22.10.2017 04:00:00 10,3 6,1 9,1 14,6 14,9 29 16 48 26 SW 1013,4 10 0 0,0
22.10.2017 03:00:00 10,5 6,3 9,0 14,6 14,9 28 15 54 29 SW 1013,3 10 0 0,0
22.10.2017 02:00:00 10,6 6,2 8,6 14,6 14,9 31 17 51 27 SW 1013,0 31 0 0,0
22.10.2017 01:00:00 10,5 6,3 8,3 14,6 14,9 29 16 49 26 SSW 1013,1 10 0 0,0
22.10.2017 00:00:00 10,6 6,5 8,2 14,6 14,9 29 16 46 25 SSW 1013,2 39 0 0,0
21.10.2017 23:00:00 10,8 6,2 8,3 14,6 14,9 32 18 53 29 SW 1013,3 40 0 0,0
21.10.2017 22:00:00 10,9 6,8 8,3 14,6 14,9 22 12 41 22 SSW 1013,3 49 0 0,0
21.10.2017 21:00:00 12,0 6,7 8,9 14,6 14,9 29 16 48 26 SW 1013,0 47 0 0,0
21.10.2017 20:00:00 12,4 7,3 9,2 14,6 14,9 27 15 43 23 SSW 1012,5 46 0 0,0
21.10.2017 19:00:00 12,5 7,6 9,7 14,6 15,0 20 11 35 19 SSW 1012,0 49 0 0,0
21.10.2017 18:00:00 12,6 9,2 11,3 14,5 14,9 18 10 51 28 SSW 1011,9 10 29 0,8
21.10.2017 17:00:00 15,8 6,5 15,3 14,5 15,0 35 19 56 30 SW 1011,3 39 31 0,0
21.10.2017 16:00:00 17,0 7,1 15,3 14,5 14,9 35 19 61 33 WSW 1011,1 10 48 0,2
21.10.2017 15:00:00 15,6 9,0 14,7 14,5 14,9 28 15 56 30 SW 1011,2 10 27 0,2
21.10.2017 14:00:00 16,6 8,0 20,4 14,5 14,9 34 18 63 34 SW 1011,6 10 49 0,0
21.10.2017 13:00:00 16,5 9,4 16,7 14,5 14,9 29 16 55 30 SSW 1012,0 17 38 0,0
21.10.2017 12:00:00 16,1 10,6 14,6 14,6 15,0 28 15 48 26 SSW 1012,1 10 45 0,0
21.10.2017 11:00:00 15,1 10,7 13,6 14,5 14,9 26 14 41 22 SW 1012,1 10 34 0,0
21.10.2017 10:00:00 14,4 11,0 13,2 14,6 15,0 21 11 35 19 SW 1011,7 10 21 0,0
21.10.2017 09:00:00 14,5 12,0 13,2 14,6 15,0 21 11 37 20 SW 1010,9 10 0 0,0
21.10.2017 08:00:00 14,5 12,4 13,2 14,6 14,9 16 9 42 23 SW 1010,4 10 0 0,2
21.10.2017 07:00:00 15,0 13,0 12,4 14,7 14,9 19 11 29 16 S 1009,9 41 0 0,2
21.10.2017 06:00:00 13,0 11,6 12,0 14,7 14,9 14 8 23 13 SSE 1009,9 16 0 0,0
21.10.2017 05:00:00 12,5 11,2 10,8 14,8 15,0 18 10 31 17 SSE 1010,0 10 0 0,4
21.10.2017 04:00:00 12,1 9,8 9,6 14,8 15,0 18 10 26 14 S 1010,4 36 0 0,0
21.10.2017 03:00:00 11,3 9,0 9,5 14,8 14,9 11 6 16 9 ESE 1011,3 10 0 0,0
21.10.2017 02:00:00 10,9 8,5 8,1 14,8 15,0 9 5 19 10 SSE 1012,0 10 0 0,0
21.10.2017 01:00:00 10,1 7,9 7,7 14,9 15,0 11 6 17 9 SSE 1012,4 10 0 0,0
21.10.2017 00:00:00 9,9 7,0 7,9 14,9 15,0 9 5 17 9 SE 1013,0 10 0 0,0
20.10.2017 23:00:00 9,2 8,0 7,5 14,9 14,9 13 7 18 10 S 1013,4 10 0 0,0
20.10.2017 22:00:00 9,1 7,0 8,0 14,9 15,0 12 7 16 9 ESE 1013,7 33 0 0,0
20.10.2017 21:00:00 9,6 7,7 8,0 14,9 15,0 10 5 13 7 ESE 1013,9 36 0 0,0
20.10.2017 20:00:00 10,8 6,7 8,9 14,9 15,0 7 4 24 13 SSE 1014,3 40 0 0,0
20.10.2017 19:00:00 13,3 7,3 10,9 14,9 15,0 15 8 27 15 SSW 1013,9 44 5 0,0
20.10.2017 18:00:00 14,5 7,3 13,1 14,9 15,0 18 10 41 22 SW 1013,8 19 24 0,0
20.10.2017 17:00:00 15,5 7,3 16,1 14,9 15,0 24 13 40 21 SW 1013,8 30 53 0,0
20.10.2017 16:00:00 16,1 8,6 16,1 14,9 15,0 21 11 43 23 SW 1013,2 10 27 0,0
20.10.2017 15:00:00 16,0 8,2 17,5 14,9 15,0 28 15 46 25 SW 1013,1 10 25 0,0
20.10.2017 14:00:00 15,4 8,8 18,0 14,9 15,0 28 15 52 28 SW 1013,2 10 30 0,0
20.10.2017 13:00:00 14,7 8,4 16,7 14,9 15,0 26 14 46 25 SW 1013,2 20 41 0,0
20.10.2017 12:00:00 13,7 8,7 13,9 14,9 14,9 29 16 48 26 SW 1012,4 10 57 0,0
20.10.2017 11:00:00 12,4 8,9 12,9 14,9 14,9 26 14 45 25 SW 1012,1 20 36 0,0
20.10.2017 10:00:00 11,7 8,5 9,8 15,0 15,0 28 15 41 22 SW 1011,1 20 60 0,0
20.10.2017 09:00:00 10,7 8,5 8,9 15,0 15,0 23 12 37 20 SSW 1010,3 33 0 0,0
20.10.2017 08:00:00 10,8 8,6 9,1 15,0 15,0 22 12 37 20 SW 1009,4 50 0 0,0
20.10.2017 07:00:00 11,1 8,7 9,3 15,0 15,0 21 11 40 22 SW 1008,7 51 0 0,0
20.10.2017 06:00:00 12,0 9,7 10,5 15,0 15,0 25 13 51 28 SW 1007,7 60 0 0,0
20.10.2017 05:00:00 13,2 11,3 11,7 15,0 15,0 24 13 39 21 SW 1006,9 10 0 0,0
20.10.2017 04:00:00 13,6 12,2 12,9 15,0 14,9 25 14 50 27 SSW 1006,3 59 0 0,6
20.10.2017 03:00:00 13,7 12,4 13,2 15,0 15,0 26 14 48 26 S 1006,0 10 0 3,3
20.10.2017 02:00:00 14,2 12,6 13,3 14,9 14,9 23 12 40 22 S 1006,4 6 0 2,8
20.10.2017 01:00:00 15,7 12,3 14,0 15,0 15,0 17 9 34 18 S 1006,7 16 0 0,0
20.10.2017 00:00:00 15,9 11,7 14,1 14,9 15,0 20 11 40 22 S 1006,9 53 0 0,0
19.10.2017 23:00:00 16,5 11,6 14,7 14,9 15,0 23 12 36 19 S 1006,5 60 0 0,0
19.10.2017 22:00:00 16,9 11,6 14,8 14,9 15,0 22 12 45 24 S 1006,4 60 0 0,0
19.10.2017 21:00:00 17,4 11,7 15,1 14,8 15,0 24 13 35 19 S 1006,5 60 0 0,0
19.10.2017 20:00:00 18,0 11,5 16,1 14,8 15,0 19 10 31 17 S 1006,6 60 0 0,0
19.10.2017 19:00:00 18,9 11,9 17,4 14,8 15,0 19 10 34 18 S 1006,9 60 0 0,0
19.10.2017 18:00:00 19,6 12,1 18,4 14,8 15,0 25 13 43 23 S 1006,7 42 23 0,0
19.10.2017 17:00:00 20,2 12,2 19,7 14,8 15,0 30 16 51 28 S 1006,5 45 5 0,0
19.10.2017 16:00:00 20,1 13,3 20,2 14,8 15,0 22 12 40 22 SSW 1006,6 10 4 0,0
19.10.2017 15:00:00 20,8 13,2 23,0 14,7 14,9 28 15 50 27 S 1006,6 10 35 0,0
19.10.2017 14:00:00 20,9 14,1 24,1 14,8 15,0 24 13 43 23 S 1006,8 10 56 0,0
19.10.2017 13:00:00 19,6 14,0 21,3 14,8 15,0 24 13 39 21 SSE 1007,5 10 48 0,0
19.10.2017 12:00:00 18,5 13,8 17,3 14,8 14,9 18 10 29 16 SSE 1007,8 10 42 0,0
19.10.2017 11:00:00 15,6 12,3 14,0 14,8 15,0 16 9 25 13 ESE 1008,6 10 42 0,0
19.10.2017 10:00:00 12,9 11,6 11,4 14,9 15,0 11 6 19 11 ESE 1008,9 10 16 0,0
19.10.2017 09:00:00 11,4 10,5 9,5 15,0 15,0 11 6 16 9 ESE 1008,9 10 1 0,0
19.10.2017 08:00:00 9,2 8,6 7,3 15,0 15,0 5 3 9 5 E 1008,7 9 0 0,0
19.10.2017 07:00:00 8,3 7,5 6,6 15,0 15,0 7 4 12 6 ESE 1009,1 6 0 0,2
19.10.2017 06:00:00 8,7 7,9 7,2 15,1 15,0 2 1 12 6 E 1009,2 7 0 0,0
19.10.2017 05:00:00 8,6 7,8 6,8 15,1 15,0 9 5 11 6 ENE 1009,6 8 0 0,0
19.10.2017 04:00:00 8,7 7,6 6,8 15,1 15,0 4 2 7 4 S 1010,1 5 0 0,0
19.10.2017 03:00:00 10,1 8,5 8,0 15,1 14,9 3 2 5 3 E 1010,4 11 0 0,0
19.10.2017 02:00:00 10,6 9,4 8,7 15,1 14,9 4 2 9 5 ENE 1010,6 10 0 0,0
19.10.2017 01:00:00 10,9 9,8 9,3 15,1 15,0 8 4 11 6 E 1011,4 10 0 0,0
19.10.2017 00:00:00 11,5 10,4 9,3 15,1 15,0 11 6 12 7 E 1011,6 9 0 0,0
18.10.2017 23:00:00 11,5 9,7 9,2 15,1 15,0 6 3 7 4 SE 1011,9 10 0 0,0
18.10.2017 22:00:00 13,4 10,7 10,4 15,1 15,0 3 2 10 5 E 1011,5 15 0 0,0
18.10.2017 21:00:00 15,4 12,2 12,7 15,1 15,0 10 5 16 8 ENE 1011,5 17 0 0,0
18.10.2017 20:00:00 15,6 12,2 13,4 15,0 15,0 8 5 12 6 SE 1011,6 19 0 0,0
18.10.2017 19:00:00 17,2 12,9 15,5 15,0 15,0 9 5 14 8 SSE 1011,2 20 10 0,0
18.10.2017 18:00:00 19,5 13,7 18,9 15,0 15,0 9 5 15 8 SE 1010,9 10 15 0,0
18.10.2017 17:00:00 19,8 13,7 19,9 14,9 15,0 9 5 21 11 SSE 1011,3 10 18 0,0
18.10.2017 16:00:00 20,4 13,8 22,1 14,9 15,0 15 8 19 10 S 1011,5 10 21 0,0
18.10.2017 15:00:00 19,7 14,1 20,5 14,9 15,0 11 6 23 12 SSE 1011,8 10 37 0,0
18.10.2017 14:00:00 18,2 14,1 19,0 14,9 15,0 9 5 18 10 S 1012,5 10 0 0,0
18.10.2017 13:00:00 18,0 14,3 19,4 15,0 15,0 9 5 15 8 S 1012,8 10 0 0,0
18.10.2017 12:00:00 16,5 13,4 18,2 15,0 14,9 4 2 22 12 - 1012,6 10 0 0,0
18.10.2017 11:00:00 15,1 13,5 15,2 15,0 15,0 13 7 22 12 SSW 1013,3 18 42 0,0
18.10.2017 10:00:00 13,0 12,8 11,8 15,0 15,0 8 4 10 5 SE 1013,2 8 60 0,0
18.10.2017 09:00:00 10,5 10,2 10,6 15,1 15,0 2 1 4 2 E 1013,2 0,5 3 0,0
18.10.2017 08:00:00 10,4 10,1 10,5 15,1 14,9 3 2 7 4 SE 1012,9 0,1 0 0,0
18.10.2017 07:00:00 11,5 11,2 11,8 15,1 14,9 5 3 9 5 ESE 1013,0 0,1 0 0,2
18.10.2017 06:00:00 11,5 11,2 11,7 15,1 15,0 5 3 8 5 ESE 1013,1 0,3 0 0,0
18.10.2017 05:00:00 11,6 11,3 12,0 15,1 15,0 4 2 7 4 E 1013,4 0,1 0 0,0
18.10.2017 04:00:00 12,0 11,7 11,6 15,1 14,9 0 0 3 2 N 1013,8 0,1 0 0,0
18.10.2017 03:00:00 11,0 10,7 8,0 15,1 14,9 2 1 3 2 E 1014,3 0,1 0 0,0
18.10.2017 02:00:00 10,2 9,7 7,8 15,2 15,0 0 0 6 3 N 1014,5 0,1 0 0,0
18.10.2017 01:00:00 10,5 9,9 8,8 15,2 15,0 4 2 11 6 NNW 1014,8 0,6 0 0,2
18.10.2017 00:00:00 12,2 11,7 9,8 15,1 14,9 8 4 11 6 N 1015,2 0,9 0 0,0
17.10.2017 23:00:00 12,3 11,2 10,8 15,1 14,9 8 4 9 5 N 1015,8 5 0 0,0
17.10.2017 22:00:00 13,4 12,5 10,9 15,1 14,9 0 0 11 6 N 1016,0 7 0 0,0
17.10.2017 21:00:00 14,6 13,0 11,2 15,1 14,9 4 2 12 7 NE 1016,3 10 0 0,0
17.10.2017 20:00:00 15,4 13,1 13,2 15,0 14,9 9 5 13 7 ENE 1016,6 10 0 0,0
17.10.2017 19:00:00 17,3 14,0 15,9 15,0 14,9 11 6 18 10 NE 1016,5 10 0 0,0
17.10.2017 18:00:00 19,5 14,5 18,9 15,0 14,9 13 7 22 12 ENE 1017,0 10 40 0,0
17.10.2017 17:00:00 20,4 14,7 21,6 15,0 14,9 15 8 19 10 ENE 1017,4 10 49 0,0
17.10.2017 16:00:00 19,9 14,5 21,8 15,0 14,9 11 6 19 11 E 1018,0 10 5 0,0
17.10.2017 15:00:00 19,6 14,2 23,2 15,0 14,9 8 4 13 7 E 1018,8 10 5 0,0
17.10.2017 14:00:00 18,4 13,9 21,4 15,1 14,9 7 4 13 7 ENE 1020,1 13 7 0,0
17.10.2017 13:00:00 17,2 13,9 18,7 15,1 14,9 8 4 12 7 ENE 1021,2 10 0 0,0
17.10.2017 12:00:00 15,5 13,0 18,3 15,1 14,9 4 2 9 5 - 1021,9 10 0 0,0
17.10.2017 11:00:00 13,7 12,9 17,0 15,1 14,9 2 1 6 3 - 1022,5 10 46 0,0
17.10.2017 10:00:00 12,4 12,1 10,1 15,2 14,9 0 0 3 2 N 1022,9 9 60 0,0
17.10.2017 09:00:00 9,4 8,9 8,0 15,2 14,9 0 0 4 2 N 1022,8 3,6 4 0,0
17.10.2017 08:00:00 9,7 9,2 7,6 15,2 14,9 0 0 3 2 N 1022,7 0,5 0 0,0
17.10.2017 07:00:00 9,9 9,1 7,7 15,2 14,9 0 0 8 4 N 1022,8 8 0 0,0
17.10.2017 06:00:00 9,9 8,8 8,5 15,3 14,9 5 3 6 4 E 1022,5 9 0 0,0
17.10.2017 05:00:00 11,8 10,5 9,2 15,3 14,9 0 0 4 2 N 1022,4 12 0 0,0
17.10.2017 04:00:00 12,8 11,5 10,4 15,2 14,9 2 1 11 6 - 1022,5 10 0 0,0
17.10.2017 03:00:00 13,3 12,0 10,7 15,2 14,9 10 5 11 6 W 1022,3 10 0 0,0
17.10.2017 02:00:00 14,3 12,7 12,1 15,2 14,9 10 5 13 7 W 1022,3 11 0 0,0
17.10.2017 01:00:00 15,9 13,9 13,1 15,2 14,9 9 5 15 8 W 1022,3 10 0 0,0
17.10.2017 00:00:00 16,4 14,1 12,9 15,2 14,9 10 5 13 7 WSW 1022,2 14 0 0,0
16.10.2017 23:00:00 17,5 14,4 13,7 15,2 14,9 9 5 16 9 W 1021,8 16 0 0,0
16.10.2017 22:00:00 17,8 14,3 13,9 15,1 14,9 9 5 13 7 WSW 1021,3 19 0 0,0
16.10.2017 21:00:00 18,3 14,8 14,7 15,1 14,9 9 5 15 8 SW 1021,0 20 0 0,0
16.10.2017 20:00:00 18,8 14,3 15,0 15,0 14,9 9 5 13 7 SW 1020,7 30 0 0,0
16.10.2017 19:00:00 21,2 14,8 17,7 15,0 14,9 10 5 16 9 SSW 1020,1 35 0 0,0
16.10.2017 18:00:00 23,5 14,8 21,3 15,0 14,9 13 7 27 14 SW 1019,4 10 18 0,0
16.10.2017 17:00:00 25,4 14,8 25,0 14,9 14,9 18 10 32 17 SW 1019,1 10 60 0,0
16.10.2017 16:00:00 25,4 14,2 27,5 14,9 14,9 23 12 35 19 S 1018,6 19 60 0,0
16.10.2017 15:00:00 24,7 14,5 27,4 14,9 14,9 24 13 33 18 SSE 1018,8 10 58 0,0

tt = Température de l'air
td = dewpoint
tt 5cm = Température de l'air 5cm
tt -20cm = Température de l'air -20cm
tt -100cm = Température de l'air -100cm
ff = Vitesse du vent
fx = gusts
dd = Direction du vent
ppp = reduced air pressure
vv = visibility
sd = Ensoleillement
rr = Quantités de précipitations

stations d'obs. à proximité